• In Deutschland
  • Länderverzeichnis
  • Für 7 Tage
  • Wassertemperatur
  • Satellitenkarten
  • Wetterkarte
  • Widgets
  • user-avatar
    Anmelden

    Stündliche Wetter Ischgl

    Heute, 21 August, Montag

    Zeit Temperatur Niederschläge Wind Luftdruck Luftfeuchtigkeit
    00:00 +1°C° 0 mm 1 m/S 577 mmHg 86%
    01:00 +1°C° 0 mm 1 m/S 577 mmHg 89%
    02:00 +1°C° 0 mm 1 m/S 577 mmHg 88%
    03:00 +1°C° 0 mm 1 m/S 577 mmHg 88%
    04:00 +1°C° 0 mm 1 m/S 577 mmHg 87%
    05:00 +2°C° 0 mm 1 m/S 578 mmHg 80%
    06:00 +3°C° 0 mm 1 m/S 578 mmHg 73%
    07:00 +4°C° 0 mm 1 m/S 579 mmHg 67%
    08:00 +6°C° 0 mm 1 m/S 580 mmHg 57%
    09:00 +7°C° 0 mm 2 m/S 581 mmHg 48%
    10:00 +9°C° 0 mm 2 m/S 581 mmHg 38%
    11:00 +9°C° 0 mm 2 m/S 581 mmHg 40%
    12:00 +9°C° 0 mm 2 m/S 581 mmHg 41%
    13:00 +10°C° 0 mm 2 m/S 581 mmHg 43%
    14:00 +9°C° 0 mm 2 m/S 581 mmHg 45%
    15:00 +9°C° 0 mm 2 m/S 580 mmHg 48%
    16:00 +9°C° 0 mm 2 m/S 580 mmHg 51%
    17:00 +8°C° 0 mm 1 m/S 580 mmHg 58%
    18:00 +7°C° 0 mm 1 m/S 579 mmHg 65%
    19:00 +6°C° 0 mm 1 m/S 579 mmHg 72%
    20:00 +5°C° 0 mm 1 m/S 578 mmHg 76%
    21:00 +4°C° 0 mm 1 m/S 578 mmHg 79%
    22:00 +3°C° 0 mm 1 m/S 578 mmHg 82%
    23:00 +3°C° 0 mm 1 m/S 578 mmHg 82%

    Morgen, 22 August, Dienstag

    Zeit Temperatur Niederschläge Wind Luftdruck Luftfeuchtigkeit
    00:00 +2°C° 0 mm 1 m/S 577 mmHg 81%
    01:00 +2°C° 0 mm 1 m/S 577 mmHg 81%
    02:00 +2°C° 0 mm 1 m/S 577 mmHg 80%
    03:00 +2°C° 0 mm 1 m/S 577 mmHg 79%
    04:00 +2°C° 0 mm 1 m/S 577 mmHg 79%
    05:00 +4°C° 0 mm 1 m/S 578 mmHg 75%
    06:00 +5°C° 0 mm 1 m/S 579 mmHg 71%
    07:00 +7°C° 0 mm 1 m/S 579 mmHg 67%
    08:00 +9°C° 0 mm 1 m/S 580 mmHg 62%
    09:00 +11°C° 0 mm 1 m/S 581 mmHg 56%
    10:00 +13°C° 0 mm 1 m/S 582 mmHg 51%
    11:00 +14°C° 0 mm 1 m/S 582 mmHg 49%
    12:00 +15°C° 0 mm 2 m/S 582 mmHg 47%
    13:00 +16°C° 0 mm 2 m/S 582 mmHg 44%
    14:00 +15°C° 0 mm 2 m/S 582 mmHg 46%
    15:00 +15°C° 0 mm 2 m/S 582 mmHg 48%
    16:00 +15°C° 0 mm 2 m/S 581 mmHg 50%
    17:00 +13°C° 0 mm 2 m/S 580 mmHg 61%
    18:00 +10°C° 0 mm 2 m/S 579 mmHg 72%
    19:00 +9°C° 0 mm 1 m/S 579 mmHg 83%
    20:00 +8°C° 0 mm 1 m/S 578 mmHg 86%
    21:00 +7°C° 0 mm 1 m/S 578 mmHg 89%
    22:00 +6°C° 0 mm 1 m/S 578 mmHg 93%
    23:00 +5°C° 0 mm 1 m/S 577 mmHg 91%

    übermorgen, 23 August, Mittwoch

    Zeit Temperatur Niederschläge Wind Luftdruck Luftfeuchtigkeit
    00:00 +5°C° 0 mm 1 m/S 577 mmHg 89%
    01:00 +5°C° 0 mm 1 m/S 577 mmHg 87%
    02:00 +5°C° 0 mm 1 m/S 577 mmHg 83%
    03:00 +5°C° 0 mm 1 m/S 576 mmHg 80%
    04:00 +4°C° 0 mm 1 m/S 576 mmHg 76%
    05:00 +6°C° 0 mm 1 m/S 577 mmHg 72%
    06:00 +7°C° 0 mm 1 m/S 578 mmHg 69%
    07:00 +9°C° 0 mm 1 m/S 579 mmHg 65%
    08:00 +11°C° 0 mm 1 m/S 580 mmHg 57%
    09:00 +13°C° 0 mm 1 m/S 581 mmHg 49%
    10:00 +16°C° 0 mm 1 m/S 582 mmHg 41%
    11:00 +16°C° 0 mm 1 m/S 582 mmHg 39%
    12:00 +17°C° 0 mm 2 m/S 582 mmHg 37%
    13:00 +18°C° 0 mm 2 m/S 583 mmHg 35%
    14:00 +18°C° 0 mm 2 m/S 582 mmHg 36%
    15:00 +17°C° 0 mm 2 m/S 582 mmHg 38%
    16:00 +17°C° 0 mm 2 m/S 582 mmHg 39%
    17:00 +15°C° 0,1 mm 2 m/S 581 mmHg 50%
    18:00 +13°C° 0,1 mm 1 m/S 580 mmHg 61%
    19:00 +10°C° 0,1 mm 1 m/S 579 mmHg 72%
    20:00 +9°C° 0 mm 1 m/S 579 mmHg 73%
    21:00 +8°C° 0 mm 1 m/S 579 mmHg 75%
    22:00 +7°C° 0 mm 1 m/S 578 mmHg 77%
    23:00 +7°C° 0 mm 1 m/S 578 mmHg 74%

    24 August, Donnerstag

    Zeit Temperatur Niederschläge Wind Luftdruck Luftfeuchtigkeit
    00:00 +7°C° 0 mm 1 m/S 578 mmHg 72%
    01:00 +7°C° 0 mm 1 m/S 578 mmHg 70%
    02:00 +7°C° 0 mm 1 m/S 578 mmHg 68%
    03:00 +7°C° 0 mm 1 m/S 578 mmHg 66%
    04:00 +6°C° 0 mm 1 m/S 578 mmHg 64%
    05:00 +8°C° 0 mm 1 m/S 578 mmHg 63%
    06:00 +9°C° 0 mm 1 m/S 579 mmHg 62%
    07:00 +10°C° 0 mm 1 m/S 580 mmHg 61%
    08:00 +12°C° 0 mm 1 m/S 581 mmHg 55%
    09:00 +14°C° 0 mm 1 m/S 582 mmHg 49%
    10:00 +16°C° 0 mm 1 m/S 583 mmHg 43%
    11:00 +16°C° 0,1 mm 1 m/S 583 mmHg 44%
    12:00 +16°C° 0,1 mm 1 m/S 583 mmHg 45%
    13:00 +18°C° 0,1 mm 1 m/S 583 mmHg 47%
    14:00 +16°C° 0,4 mm 1 m/S 582 mmHg 51%
    15:00 +16°C° 0,4 mm 1 m/S 582 mmHg 55%
    16:00 +15°C° 0,4 mm 1 m/S 582 mmHg 59%
    17:00 +14°C° 0,4 mm 1 m/S 581 mmHg 66%
    18:00 +12°C° 0,4 mm 1 m/S 580 mmHg 72%
    19:00 +11°C° 0,4 mm 1 m/S 580 mmHg 79%
    20:00 +10°C° 0,1 mm 1 m/S 580 mmHg 80%
    21:00 +9°C° 0,1 mm 1 m/S 579 mmHg 81%
    22:00 +8°C° 0,1 mm 2 m/S 579 mmHg 81%
    23:00 +7°C° 0 mm 2 m/S 579 mmHg 82%

    25 August, Freitag

    Zeit Temperatur Niederschläge Wind Luftdruck Luftfeuchtigkeit
    00:00 +7°C° 0 mm 2 m/S 579 mmHg 82%
    01:00 +7°C° 0 mm 2 m/S 579 mmHg 82%
    02:00 +7°C° 0 mm 2 m/S 579 mmHg 81%
    03:00 +7°C° 0 mm 2 m/S 578 mmHg 80%
    04:00 +6°C° 0 mm 2 m/S 578 mmHg 79%
    05:00 +7°C° 0 mm 2 m/S 579 mmHg 77%
    06:00 +8°C° 0 mm 2 m/S 579 mmHg 75%
    07:00 +9°C° 0 mm 2 m/S 580 mmHg 73%
    08:00 +12°C° 0 mm 2 m/S 581 mmHg 65%
    09:00 +14°C° 0 mm 2 m/S 582 mmHg 57%
    10:00 +17°C° 0 mm 2 m/S 583 mmHg 49%
    11:00 +17°C° 0 mm 2 m/S 583 mmHg 47%
    12:00 +18°C° 0 mm 2 m/S 583 mmHg 46%
    13:00 +19°C° 0 mm 2 m/S 583 mmHg 44%
    14:00 +18°C° 0,6 mm 2 m/S 583 mmHg 51%
    15:00 +17°C° 0,6 mm 2 m/S 582 mmHg 58%
    16:00 +16°C° 0,6 mm 2 m/S 581 mmHg 65%
    17:00 +14°C° 1,2 mm 2 m/S 581 mmHg 73%
    18:00 +13°C° 1,2 mm 2 m/S 580 mmHg 81%
    19:00 +11°C° 1,2 mm 1 m/S 580 mmHg 89%
    20:00 +10°C° 0,5 mm 2 m/S 580 mmHg 89%
    21:00 +9°C° 0,5 mm 2 m/S 580 mmHg 89%
    22:00 +9°C° 0,5 mm 2 m/S 580 mmHg 90%
    23:00 +8°C° 0,2 mm 2 m/S 580 mmHg 88%

    26 August, Samstag

    Zeit Temperatur Niederschläge Wind Luftdruck Luftfeuchtigkeit
    00:00 +8°C° 0,2 mm 2 m/S 579 mmHg 87%
    01:00 +8°C° 0,2 mm 2 m/S 579 mmHg 86%
    02:00 +8°C° 0,1 mm 2 m/S 579 mmHg 85%
    03:00 +7°C° 0,1 mm 2 m/S 579 mmHg 83%
    04:00 +7°C° 0,1 mm 2 m/S 578 mmHg 82%
    05:00 +8°C° 0 mm 2 m/S 579 mmHg 80%
    06:00 +9°C° 0 mm 2 m/S 579 mmHg 78%
    07:00 +9°C° 0 mm 2 m/S 580 mmHg 77%
    08:00 +13°C° 0 mm 2 m/S 581 mmHg 68%
    09:00 +15°C° 0 mm 2 m/S 582 mmHg 59%
    10:00 +17°C° 0 mm 2 m/S 583 mmHg 50%
    11:00 +18°C° 0,1 mm 2 m/S 583 mmHg 48%
    12:00 +19°C° 0,1 mm 2 m/S 583 mmHg 45%
    13:00 +20°C° 0,1 mm 2 m/S 583 mmHg 43%
    14:00 +19°C° 0,2 mm 2 m/S 583 mmHg 45%
    15:00 +19°C° 0,2 mm 2 m/S 582 mmHg 46%
    16:00 +19°C° 0,2 mm 2 m/S 582 mmHg 48%
    17:00 +17°C° 0,2 mm 2 m/S 581 mmHg 58%
    18:00 +14°C° 0,2 mm 2 m/S 580 mmHg 68%
    19:00 +12°C° 0,2 mm 1 m/S 580 mmHg 78%
    20:00 +12°C° 0,1 mm 2 m/S 579 mmHg 79%
    21:00 +10°C° 0,1 mm 2 m/S 579 mmHg 81%
    22:00 +9°C° 0,1 mm 2 m/S 579 mmHg 83%
    23:00 +9°C° 0,2 mm 2 m/S 579 mmHg 81%
    Mehr zeigen